When you browse on this site, cookies collect data to enhance your experience and personalize the content and advertising you see.
Visit our Privacy Policy to learn more. By continuing to use the site, you agree to this use of cookies and data.

Meteo pe oră la Tarija

Astăzi, 9 Iulie, Joi

Timp Temperatura Precipitaţii Vânt Presiune Umiditate
00:00 +8°C° 0 mm 1 m/s 596 mmHg 48%
01:00 +7°C° 0 mm 1 m/s 596 mmHg 47%
02:00 +7°C° 0 mm 1 m/s 596 mmHg 45%
03:00 +7°C° 0 mm 1 m/s 596 mmHg 46%
04:00 +6°C° 0 mm 1 m/s 596 mmHg 47%
05:00 +6°C° 0 mm 1 m/s 595 mmHg 48%
06:00 +7°C° 0 mm 1 m/s 597 mmHg 43%
07:00 +9°C° 0 mm 1 m/s 598 mmHg 39%
08:00 +11°C° 0 mm 1 m/s 599 mmHg 34%
09:00 +13°C° 0 mm 1 m/s 600 mmHg 28%
10:00 +16°C° 0 mm 2 m/s 601 mmHg 22%
11:00 +19°C° 0 mm 2 m/s 602 mmHg 16%
12:00 +20°C° 0 mm 2 m/s 601 mmHg 15%
13:00 +21°C° 0 mm 2 m/s 601 mmHg 13%
14:00 +24°C° 0 mm 2 m/s 601 mmHg 12%
15:00 +21°C° 0 mm 2 m/s 600 mmHg 19%
16:00 +19°C° 0 mm 2 m/s 599 mmHg 26%
17:00 +18°C° 0 mm 2 m/s 598 mmHg 33%
18:00 +15°C° 0 mm 2 m/s 597 mmHg 39%
19:00 +13°C° 0 mm 2 m/s 597 mmHg 44%
20:00 +10°C° 0 mm 2 m/s 596 mmHg 49%
21:00 +10°C° 0 mm 2 m/s 596 mmHg 44%
22:00 +10°C° 0 mm 2 m/s 597 mmHg 38%
23:00 +10°C° 0 mm 2 m/s 597 mmHg 33%

Mâine, 10 Iulie, Vineri

Timp Temperatura Precipitaţii Vânt Presiune Umiditate
00:00 +10°C° 0 mm 2 m/s 596 mmHg 29%
01:00 +10°C° 0 mm 3 m/s 596 mmHg 24%
02:00 +10°C° 0 mm 3 m/s 596 mmHg 20%
03:00 +10°C° 0 mm 3 m/s 595 mmHg 19%
04:00 +10°C° 0 mm 3 m/s 595 mmHg 18%
05:00 +11°C° 0 mm 4 m/s 595 mmHg 17%
06:00 +11°C° 0 mm 4 m/s 595 mmHg 15%
07:00 +12°C° 0 mm 4 m/s 596 mmHg 14%
08:00 +13°C° 0 mm 4 m/s 596 mmHg 13%
09:00 +17°C° 0 mm 4 m/s 597 mmHg 10%
10:00 +21°C° 0 mm 4 m/s 598 mmHg 8%
11:00 +25°C° 0 mm 3 m/s 599 mmHg 6%
12:00 +26°C° 0 mm 4 m/s 599 mmHg 5%
13:00 +28°C° 0 mm 5 m/s 598 mmHg 5%
14:00 +29°C° 0 mm 6 m/s 598 mmHg 4%
15:00 +27°C° 0 mm 5 m/s 597 mmHg 7%
16:00 +26°C° 0 mm 3 m/s 597 mmHg 10%
17:00 +24°C° 0 mm 2 m/s 596 mmHg 13%
18:00 +20°C° 0 mm 2 m/s 595 mmHg 17%
19:00 +17°C° 0 mm 2 m/s 595 mmHg 21%
20:00 +14°C° 0 mm 1 m/s 594 mmHg 25%
21:00 +14°C° 0 mm 1 m/s 594 mmHg 26%
22:00 +13°C° 0 mm 1 m/s 595 mmHg 27%
23:00 +13°C° 0 mm 1 m/s 595 mmHg 28%

Poimâine, 11 Iulie, Sâmbătă

Timp Temperatura Precipitaţii Vânt Presiune Umiditate
00:00 +12°C° 0 mm 1 m/s 595 mmHg 29%
01:00 +11°C° 0 mm 1 m/s 595 mmHg 30%
02:00 +11°C° 0 mm 1 m/s 595 mmHg 31%
03:00 +10°C° 0 mm 1 m/s 594 mmHg 33%
04:00 +9°C° 0 mm 1 m/s 594 mmHg 34%
05:00 +9°C° 0 mm 1 m/s 594 mmHg 36%
06:00 +10°C° 0 mm 1 m/s 595 mmHg 35%
07:00 +11°C° 0 mm 1 m/s 596 mmHg 34%
08:00 +12°C° 0 mm 1 m/s 597 mmHg 33%
09:00 +15°C° 0 mm 1 m/s 597 mmHg 27%
10:00 +18°C° 0 mm 2 m/s 598 mmHg 21%
11:00 +20°C° 0 mm 2 m/s 599 mmHg 16%
12:00 +23°C° 0 mm 2 m/s 599 mmHg 14%
13:00 +24°C° 0 mm 2 m/s 598 mmHg 13%
14:00 +25°C° 0 mm 2 m/s 598 mmHg 11%
15:00 +24°C° 0 mm 3 m/s 597 mmHg 16%
16:00 +22°C° 0 mm 4 m/s 596 mmHg 21%
17:00 +21°C° 0 mm 4 m/s 596 mmHg 26%
18:00 +18°C° 0 mm 3 m/s 595 mmHg 33%
19:00 +16°C° 0 mm 3 m/s 595 mmHg 41%
20:00 +13°C° 0 mm 2 m/s 594 mmHg 48%
21:00 +13°C° 0 mm 2 m/s 594 mmHg 46%
22:00 +13°C° 0 mm 2 m/s 595 mmHg 44%
23:00 +13°C° 0 mm 2 m/s 595 mmHg 42%

12 Iulie, Duminică

Timp Temperatura Precipitaţii Vânt Presiune Umiditate
00:00 +12°C° 0 mm 2 m/s 595 mmHg 42%
01:00 +12°C° 0 mm 2 m/s 594 mmHg 42%
02:00 +10°C° 0 mm 2 m/s 594 mmHg 42%
03:00 +10°C° 0 mm 2 m/s 594 mmHg 38%
04:00 +10°C° 0 mm 2 m/s 594 mmHg 34%
05:00 +9°C° 0 mm 2 m/s 594 mmHg 30%
06:00 +12°C° 0 mm 2 m/s 595 mmHg 26%
07:00 +13°C° 0 mm 2 m/s 596 mmHg 23%
08:00 +14°C° 0 mm 2 m/s 597 mmHg 20%
09:00 +17°C° 0 mm 2 m/s 598 mmHg 16%
10:00 +21°C° 0 mm 1 m/s 599 mmHg 12%
11:00 +25°C° 0 mm 1 m/s 600 mmHg 9%
12:00 +26°C° 0 mm 1 m/s 600 mmHg 8%
13:00 +27°C° 0 mm 1 m/s 599 mmHg 7%
14:00 +28°C° 0 mm 1 m/s 599 mmHg 7%
15:00 +27°C° 0 mm 2 m/s 598 mmHg 11%
16:00 +26°C° 0 mm 2 m/s 598 mmHg 15%
17:00 +25°C° 0 mm 2 m/s 597 mmHg 18%
18:00 +21°C° 0 mm 1 m/s 596 mmHg 27%
19:00 +18°C° 0 mm 1 m/s 595 mmHg 35%
20:00 +14°C° 0 mm 1 m/s 595 mmHg 44%
21:00 +14°C° 0 mm 1 m/s 595 mmHg 44%
22:00 +13°C° 0 mm 1 m/s 595 mmHg 44%
23:00 +13°C° 0 mm 1 m/s 595 mmHg 44%

13 Iulie, Luni

Timp Temperatura Precipitaţii Vânt Presiune Umiditate
00:00 +13°C° 0 mm 1 m/s 595 mmHg 43%
01:00 +12°C° 0 mm 1 m/s 595 mmHg 41%
02:00 +12°C° 0 mm 1 m/s 595 mmHg 39%
03:00 +12°C° 0 mm 1 m/s 594 mmHg 42%
04:00 +11°C° 0 mm 1 m/s 594 mmHg 44%
05:00 +10°C° 0 mm 1 m/s 594 mmHg 47%
06:00 +11°C° 0 mm 1 m/s 595 mmHg 46%
07:00 +12°C° 0 mm 1 m/s 596 mmHg 46%
08:00 +13°C° 0 mm 1 m/s 597 mmHg 46%
09:00 +15°C° 0 mm 1 m/s 598 mmHg 42%
10:00 +18°C° 0 mm 1 m/s 599 mmHg 39%
11:00 +20°C° 0 mm 2 m/s 600 mmHg 35%
12:00 +20°C° 0 mm 2 m/s 599 mmHg 36%
13:00 +21°C° 0 mm 2 m/s 599 mmHg 36%
14:00 +22°C° 0 mm 3 m/s 599 mmHg 36%
15:00 +20°C° 0 mm 3 m/s 598 mmHg 45%
16:00 +19°C° 0 mm 3 m/s 598 mmHg 55%
17:00 +17°C° 0 mm 3 m/s 597 mmHg 64%
18:00 +16°C° 0 mm 2 m/s 597 mmHg 71%
19:00 +15°C° 0 mm 2 m/s 597 mmHg 78%
20:00 +14°C° 0 mm 1 m/s 598 mmHg 85%
21:00 +14°C° 0 mm 1 m/s 598 mmHg 84%
22:00 +14°C° 0 mm 1 m/s 598 mmHg 83%
23:00 +13°C° 0 mm 1 m/s 598 mmHg 83%

14 Iulie, Marţi

Timp Temperatura Precipitaţii Vânt Presiune Umiditate
00:00 +13°C° 0 mm 1 m/s 598 mmHg 85%
01:00 +12°C° 0 mm 1 m/s 598 mmHg 87%
02:00 +12°C° 0 mm 1 m/s 597 mmHg 89%
03:00 +11°C° 0 mm 1 m/s 597 mmHg 90%
04:00 +11°C° 0 mm 1 m/s 597 mmHg 91%
05:00 +11°C° 0 mm 1 m/s 597 mmHg 92%
06:00 +11°C° 0 mm 1 m/s 597 mmHg 90%
07:00 +12°C° 0 mm 1 m/s 598 mmHg 88%
08:00 +13°C° 0 mm 1 m/s 599 mmHg 86%
09:00 +14°C° 0 mm 1 m/s 599 mmHg 79%
10:00 +15°C° 0 mm 2 m/s 600 mmHg 72%
11:00 +16°C° 0 mm 2 m/s 600 mmHg 65%
12:00 +17°C° 0 mm 2 m/s 600 mmHg 62%
13:00 +18°C° 0 mm 3 m/s 600 mmHg 59%
14:00 +18°C° 0 mm 3 m/s 599 mmHg 57%
15:00 +17°C° 0 mm 3 m/s 599 mmHg 62%
16:00 +17°C° 0 mm 2 m/s 598 mmHg 66%
17:00 +16°C° 0 mm 2 m/s 598 mmHg 71%
18:00 +15°C° 0 mm 2 m/s 598 mmHg 75%
19:00 +14°C° 0 mm 2 m/s 598 mmHg 79%
20:00 +13°C° 0 mm 1 m/s 598 mmHg 82%
21:00 +13°C° 0 mm 1 m/s 598 mmHg 83%
22:00 +13°C° 0 mm 1 m/s 598 mmHg 85%
23:00 +12°C° 0 mm 1 m/s 598 mmHg 86%
Arată mai mult